This demonstration page uses our WeatherBlox Daily Observations layout. Learn more.

Left ArrowRight Arrow

31.84235, -102.49876

Hourly Observations for May 16, 2017

Temp ( °F °C ) Dew Point ( °F °C ) Humidity (%) Winds ( mph kmh ) Pressure ( in mb ) Visibility ( mi km ) Precip ( " mm )
12:38 am 00:38 Partly Cloudy 74 23.3 65 18.3 74 74 S 20 31 29.65 1004 9 14 0.00 0.00
12:53 am 00:53 Partly Cloudy 74 23.3 65 18.3 74 74 S 17 28 29.65 1004 9 14 0.00 0.00
1:53 am 01:53 Clear 73 22.8 66 18.9 79 79 S 13 20 29.63 1003 9 14 0.00 0.00
2:53 am 02:53 Clear 74 23.3 66 18.9 76 76 S 17 28 29.60 1003 9 14 0.00 0.00
3:53 am 03:53 Clear 73 22.8 65 18.3 76 76 S 14 22 29.59 1002 9 14 0.00 0.00
4:53 am 04:53 Mostly Cloudy 72 22.2 65 18.3 79 79 S 17 28 29.59 1002 9 14 0.00 0.00
5:53 am 05:53 Cloudy 73 22.8 66 18.9 79 79 SSW 23 37 29.60 1002 8 13 0.00 0.00
6:53 am 06:53 Mostly Cloudy 72 22.2 66 18.9 82 82 S 25 41 29.60 1002 8 13 0.00 0.00
7:29 am 07:29 Cloudy 72 22.2 66 18.9 82 82 S 24 39 29.59 1002 7 11 0.00 0.00
7:53 am 07:53 Mostly Cloudy 72 22.2 66 18.9 82 82 S 23 37 29.61 1003 7 11 0.00 0.00
8:53 am 08:53 Partly Cloudy 74 23.3 66 18.9 76 76 S 24 39 29.62 1003 7 11 0.00 0.00
9:53 am 09:53 Sunny 78 25.6 65 18.3 64 64 SSW 21 33 29.64 1004 8 13 0.00 0.00
10:53 am 10:53 Sunny 83 28.3 60 15.6 46 46 SSW 17 28 29.63 1003 10 16 0.00 0.00
11:53 am 11:53 Sunny 86 30 53 11.7 32 32 SSW 20 31 29.61 1003 10 16 0.00 0.00
12:53 pm 12:53 Sunny 89 31.7 37 2.8 16 16 WSW 14 22 29.59 1002 10 16 0.00 0.00
1:53 pm 13:53 Sunny 91 32.8 28 -2.2 10 10 WSW 16 26 29.56 1001 10 16 0.00 0.00
2:53 pm 14:53 Sunny 93 33.9 28 -2.2 10 10 SW 14 22 29.51 999 10 16 0.00 0.00
3:53 pm 15:53 Sunny 95 35 29 -1.7 9 9 WSW 20 31 29.47 998 10 16 0.00 0.00
4:53 pm 16:53 Sunny 97 36.1 29 -1.7 9 9 SW 23 37 29.43 997 10 16 0.00 0.00
5:53 pm 17:53 Sunny 97 36.1 1 -17.2 3 3 WSW 25 41 29.41 996 10 16 0.00 0.00
6:53 pm 18:53 Sunny 95 35 0 -17.8 3 3 WSW 21 33 29.40 996 10 16 0.00 0.00
7:53 pm 19:53 Sunny 92 33.3 4 -15.6 3 3 W 14 22 29.40 996 10 16 0.00 0.00
8:53 pm 20:53 Clear 88 31.1 15 -9.4 7 7 W 24 39 29.47 998 10 16 0.00 0.00
9:22 pm 21:22 Partly Cloudy with Nearby Thunderstorms 81 27.2 32 0 17 17 WNW 25 41 29.41 996 10 16 0.00 0.00
9:40 pm 21:40 Cloudy 81 27.2 32 0 17 17 NW 20 31 29.41 996 8 13 0.00 0.00
9:53 pm 21:53 Cloudy 80 26.7 32 0 17 17 WNW 23 37 29.49 999 7 11 0.00 0.00
10:11 pm 22:11 Cloudy with Nearby Thunderstorms 80 26.7 31 -0.6 17 17 WNW 18 30 29.47 998 7 11 0.00 0.00
10:26 pm 22:26 Cloudy with Haze 80 26.7 30 -1.1 16 16 WNW 13 20 29.50 999 6 10 0.00 0.00
10:53 pm 22:53 Cloudy with Haze 79 26.1 29 -1.7 16 16 W 8 13 29.56 1001 6 10 0.00 0.00
11:53 pm 23:53 Cloudy 76 24.4 21 -6.1 13 13 WNW 18 30 29.60 1002 9 14 0.00 0.00

Powered by AerisWeather